Torna al catalogo

DELTA 1 DEB

AttivoUNKNOWN
NORAD 2700·DEBRIS·🇺🇸 United States

Lanciato Nov 6, 1965 da Cape Canaveral Space Force Station

Loading…

Prossimi Passaggi (prossime 24 ore)

TLE

AggiornatoSource: Space-Track

Epoca: Sep 13, 2026, 13:33 UTC

1  2700U 65089C   26256.56489287 -.00000297  00000-0 -10984-2 0  9991
2  2700  59.5934  93.4362 0722054 133.4984 267.2956 12.08992101722141

Traccia DELTA 1 DEB in tempo reale con AllMySat

Download on the App Store